Location: La Brionne
(46.1728°N, 1.7849°E)
Time: 22:17:42
(UTC+00:00)

Cosmos 2360 Rocket - Pass Details

Date: 16 June 2021
Orbit: 835 x 843 km, 71.0° (Epoch: 01 August)

Event Time Altitude Azimuth Distance (km) Brightness Sun altitude
Rises 21:41:06 0° 208° (SSW) 3,382 5.0 -14.2°
Reaches altitude 10° 21:43:32 10° 209° (SSW) 2,450 4.3 -14.4°
Maximum altitude 21:49:10 80° 297° (WNW) 857 2.3 -14.9°
Drops below altitude 10° 21:54:50 10° 25° (NNE) 2,460 5.1 -15.4°
Sets 21:57:17 0° 26° (NNE) 3,398 5.9 -15.6°
